Time,TemperatureF,DewpointF,PressureIn,WindDirection,WindDirectionDegrees,WindSpeedMPH,WindSpeedGustMPH,Humidity,HourlyPrecipIn,Conditions,Clouds,dailyrainin,SoftwareType,DateUTC
2013-02-03 00:14:00,3.5,-2.0,30.29,WNW,284,0.0,2.0,78,0.00,,,0.00,weatherlink.com 1.10,2013-02-03 06:14:00,
2013-02-03 00:29:00,2.4,-3.0,30.29,West,272,0.0,1.0,78,0.00,,,0.00,weatherlink.com 1.10,2013-02-03 06:29:00,
2013-02-03 00:44:00,1.5,-4.0,30.29,West,276,0.0,0.0,79,0.00,,,0.00,weatherlink.com 1.10,2013-02-03 06:44:00,
2013-02-03 00:59:00,0.0,-5.0,30.30,WNW,283,0.0,0.0,78,0.00,,,0.00,weatherlink.com 1.10,2013-02-03 06:59:00,
2013-02-03 01:14:00,-0.6,-5.0,30.29,WSW,249,0.0,0.0,80,0.00,,,0.00,weatherlink.com 1.10,2013-02-03 07:14:00,
2013-02-03 01:29:00,-0.8,-6.0,30.29,WSW,243,0.0,1.0,80,0.00,,,0.00,weatherlink.com 1.10,2013-02-03 07:29:00,
2013-02-03 01:44:00,-0.8,-5.0,30.29,WSW,257,0.0,1.0,82,0.00,,,0.00,weatherlink.com 1.10,2013-02-03 07:44:00,
2013-02-03 01:59:00,0.3,-4.0,30.30,West,260,0.0,1.0,82,0.00,,,0.00,weatherlink.com 1.10,2013-02-03 07:59:00,
2013-02-03 02:14:00,0.3,-4.0,30.30,West,266,0.0,1.0,81,0.00,,,0.00,weatherlink.com 1.10,2013-02-03 08:14:00,
2013-02-03 02:29:00,-0.8,-6.0,30.31,WSW,248,0.0,1.0,79,0.00,,,0.00,weatherlink.com 1.10,2013-02-03 08:29:00,
2013-02-03 02:44:00,-1.2,-5.0,30.30,WSW,239,1.0,1.0,82,0.00,,,0.00,weatherlink.com 1.10,2013-02-03 08:44:00,
2013-02-03 03:00:00,-0.5,-5.0,30.30,West,259,0.0,1.0,83,0.00,,,0.00,weatherlink.com 1.10,2013-02-03 09:00:00,
2013-02-03 03:15:00,-0.1,-5.0,30.30,WSW,245,0.0,1.0,81,0.00,,,0.00,weatherlink.com 1.10,2013-02-03 09:15:00,
2013-02-03 03:30:00,0.5,-4.0,30.30,West,276,0.0,1.0,82,0.00,,,0.00,weatherlink.com 1.10,2013-02-03 09:30:00,
2013-02-03 03:45:00,0.6,-4.0,30.29,West,276,0.0,1.0,81,0.00,,,0.00,weatherlink.com 1.10,2013-02-03 09:45:00,
2013-02-03 04:00:00,1.0,-3.0,30.29,West,280,0.0,1.0,82,0.00,,,0.00,weatherlink.com 1.10,2013-02-03 10:00:00,
2013-02-03 04:15:00,1.0,-4.0,30.28,West,266,0.0,1.0,81,0.00,,,0.00,weatherlink.com 1.10,2013-02-03 10:15:00,
2013-02-03 04:30:00,1.4,-3.0,30.28,West,269,0.0,2.0,81,0.00,,,0.00,weatherlink.com 1.10,2013-02-03 10:30:00,
2013-02-03 04:45:00,2.6,-2.0,30.28,West,280,0.0,2.0,81,0.00,,,0.00,weatherlink.com 1.10,2013-02-03 10:45:00,
2013-02-03 05:00:00,3.5,-1.0,30.28,West,278,0.0,3.0,80,0.00,,,0.00,weatherlink.com 1.10,2013-02-03 11:00:00,
2013-02-03 05:15:00,4.4,-1.0,30.28,WNW,293,0.0,1.0,80,0.00,,,0.00,weatherlink.com 1.10,2013-02-03 11:15:00,
2013-02-03 05:30:00,4.8,0.0,30.27,WNW,297,0.0,3.0,80,0.00,,,0.00,weatherlink.com 1.10,2013-02-03 11:30:00,
2013-02-03 05:45:00,5.3,0.0,30.27,NNW,328,1.0,5.0,79,0.00,,,0.00,weatherlink.com 1.10,2013-02-03 11:45:00,
2013-02-03 06:00:00,5.6,0.0,30.27,NNW,327,2.0,5.0,78,0.00,,,0.00,weatherlink.com 1.10,2013-02-03 12:00:00,
2013-02-03 06:15:00,5.4,0.0,30.27,NW,319,1.0,5.0,78,0.00,,,0.00,weatherlink.com 1.10,2013-02-03 12:15:00,
2013-02-03 06:31:00,5.2,0.0,30.29,NW,316,2.0,6.0,78,0.00,,,0.00,weatherlink.com 1.10,2013-02-03 12:31:00,
2013-02-03 06:46:00,5.1,0.0,30.29,NW,304,1.0,6.0,78,0.00,,,0.00,weatherlink.com 1.10,2013-02-03 12:46:00,
2013-02-03 07:01:00,4.8,-1.0,30.29,NW,319,0.0,3.0,78,0.00,,,0.00,weatherlink.com 1.10,2013-02-03 13:01:00,
2013-02-03 07:16:00,4.6,-1.0,30.30,WNW,295,0.0,4.0,78,0.00,,,0.00,weatherlink.com 1.10,2013-02-03 13:16:00,
2013-02-03 07:31:00,4.4,-1.0,30.30,North,356,0.0,4.0,78,0.00,,,0.00,weatherlink.com 1.10,2013-02-03 13:31:00,
2013-02-03 07:46:00,4.2,-1.0,30.29,North,351,2.0,2.0,78,0.00,,,0.00,weatherlink.com 1.10,2013-02-03 13:46:00,
2013-02-03 08:01:00,3.8,-2.0,30.29,NE,41,0.0,2.0,78,0.00,,,0.00,weatherlink.com 1.10,2013-02-03 14:01:00,
2013-02-03 08:16:00,3.7,-1.0,30.29,North,356,0.0,2.0,79,0.00,,,0.00,weatherlink.com 1.10,2013-02-03 14:16:00,
2013-02-03 08:31:00,3.8,-1.0,30.29,NNE,33,2.0,4.0,80,0.00,,,0.00,weatherlink.com 1.10,2013-02-03 14:31:00,
2013-02-03 08:46:00,3.6,-2.0,30.29,NNW,335,1.0,5.0,79,0.00,,,0.00,weatherlink.com 1.10,2013-02-03 14:46:00,
2013-02-03 09:01:00,3.7,-1.0,30.30,North,11,1.0,3.0,80,0.00,,,0.00,weatherlink.com 1.10,2013-02-03 15:01:00,
2013-02-03 09:16:00,4.0,-1.0,30.29,North,11,0.0,2.0,80,0.00,,,0.00,weatherlink.com 1.10,2013-02-03 15:16:00,
2013-02-03 09:31:00,4.4,-1.0,30.29,NNE,18,1.0,2.0,80,0.00,,,0.00,weatherlink.com 1.10,2013-02-03 15:31:00,
2013-02-03 09:47:00,4.7,-1.0,30.28,ENE,70,5.0,6.0,79,0.00,,,0.00,weatherlink.com 1.10,2013-02-03 15:47:00,
2013-02-03 10:02:00,4.9,0.0,30.28,NE,46,2.0,6.0,79,0.00,,,0.00,weatherlink.com 1.10,2013-02-03 16:02:00,
2013-02-03 10:17:00,5.1,0.0,30.28,ENE,59,2.0,5.0,79,0.00,,,0.00,weatherlink.com 1.10,2013-02-03 16:17:00,
2013-02-03 10:32:00,5.5,0.0,30.28,East,83,2.0,5.0,78,0.00,,,0.00,weatherlink.com 1.10,2013-02-03 16:32:00,
2013-02-03 10:47:00,5.9,0.0,30.28,NE,49,3.0,5.0,76,0.00,,,0.00,weatherlink.com 1.10,2013-02-03 16:47:00,
2013-02-03 11:02:00,6.3,0.0,30.27,ENE,77,3.0,4.0,74,0.00,,,0.00,weatherlink.com 1.10,2013-02-03 17:02:00,
2013-02-03 11:17:00,6.2,0.0,30.27,ENE,78,3.0,5.0,74,0.00,,,0.00,weatherlink.com 1.10,2013-02-03 17:17:00,
2013-02-03 11:32:00,6.2,-1.0,30.27,ENE,74,3.0,5.0,71,0.00,,,0.00,weatherlink.com 1.10,2013-02-03 17:32:00,
2013-02-03 11:47:00,6.4,-1.0,30.26,ENE,72,2.0,4.0,71,0.00,,,0.00,weatherlink.com 1.10,2013-02-03 17:47:00,
2013-02-03 12:02:00,6.4,-1.0,30.26,ENE,58,2.0,5.0,71,0.00,,,0.00,weatherlink.com 1.10,2013-02-03 18:02:00,
2013-02-03 12:17:00,6.1,-2.0,30.25,ENE,74,6.0,6.0,70,0.00,,,0.00,weatherlink.com 1.10,2013-02-03 18:17:00,
2013-02-03 12:32:00,5.9,-2.0,30.25,ENE,76,2.0,4.0,70,0.00,,,0.00,weatherlink.com 1.10,2013-02-03 18:32:00,
2013-02-03 12:47:00,5.3,-3.0,30.25,East,80,4.0,4.0,69,0.00,,,0.00,weatherlink.com 1.10,2013-02-03 18:47:00,
2013-02-03 13:02:00,5.8,-2.0,30.24,ENE,71,3.0,3.0,70,0.00,,,0.00,weatherlink.com 1.10,2013-02-03 19:02:00,
2013-02-03 13:18:00,6.0,-3.0,30.24,East,79,3.0,5.0,68,0.00,,,0.00,weatherlink.com 1.10,2013-02-03 19:18:00,
2013-02-03 13:33:00,6.4,-2.0,30.23,ENE,78,3.0,4.0,68,0.00,,,0.00,weatherlink.com 1.10,2013-02-03 19:33:00,
2013-02-03 13:48:00,6.7,-2.0,30.23,East,81,3.0,3.0,67,0.00,,,0.00,weatherlink.com 1.10,2013-02-03 19:48:00,
2013-02-03 14:03:00,6.7,-3.0,30.23,ENE,68,3.0,4.0,66,0.00,,,0.00,weatherlink.com 1.10,2013-02-03 20:03:00,
2013-02-03 14:18:00,6.5,-3.0,30.22,ENE,72,2.0,4.0,65,0.00,,,0.00,weatherlink.com 1.10,2013-02-03 20:18:00,
2013-02-03 14:33:00,6.3,-2.0,30.21,ENE,70,2.0,4.0,68,0.00,,,0.00,weatherlink.com 1.10,2013-02-03 20:33:00,
2013-02-03 14:48:00,6.3,-3.0,30.21,East,84,3.0,3.0,67,0.00,,,0.00,weatherlink.com 1.10,2013-02-03 20:48:00,
2013-02-03 15:03:00,5.7,-3.0,30.21,ENE,72,2.0,4.0,67,0.00,,,0.00,weatherlink.com 1.10,2013-02-03 21:03:00,
2013-02-03 15:18:00,5.2,-3.0,30.22,ENE,72,1.0,3.0,68,0.00,,,0.00,weatherlink.com 1.10,2013-02-03 21:18:00,
2013-02-03 15:33:00,5.2,-3.0,30.21,ENE,78,2.0,3.0,68,0.00,,,0.00,weatherlink.com 1.10,2013-02-03 21:33:00,
2013-02-03 15:48:00,5.4,-3.0,30.22,East,80,1.0,2.0,69,0.00,,,0.00,weatherlink.com 1.10,2013-02-03 21:48:00,
2013-02-03 16:03:00,5.6,-3.0,30.22,East,84,2.0,4.0,68,0.00,,,0.00,weatherlink.com 1.10,2013-02-03 22:03:00,
2013-02-03 16:18:00,6.0,-3.0,30.22,ENE,72,2.0,4.0,68,0.00,,,0.00,weatherlink.com 1.10,2013-02-03 22:18:00,
2013-02-03 16:34:00,5.8,-3.0,30.21,ENE,66,2.0,3.0,68,0.00,,,0.00,weatherlink.com 1.10,2013-02-03 22:34:00,
2013-02-03 16:49:00,5.5,-2.0,30.21,ENE,76,1.0,3.0,70,0.00,,,0.00,weatherlink.com 1.10,2013-02-03 22:49:00,
2013-02-03 17:04:00,5.2,-2.0,30.22,ENE,78,1.0,2.0,73,0.00,,,0.00,weatherlink.com 1.10,2013-02-03 23:04:00,
2013-02-03 17:19:00,4.9,-1.0,30.22,ENE,68,1.0,2.0,76,0.00,,,0.00,weatherlink.com 1.10,2013-02-03 23:19:00,
2013-02-03 17:34:00,4.7,-1.0,30.22,ENE,75,0.0,1.0,77,0.00,,,0.00,weatherlink.com 1.10,2013-02-03 23:34:00,
2013-02-03 17:49:00,4.6,-1.0,30.22,ENE,64,1.0,2.0,78,0.00,,,0.00,weatherlink.com 1.10,2013-02-03 23:49:00,
2013-02-03 18:04:00,4.5,-1.0,30.22,ENE,70,1.0,3.0,79,0.00,,,0.00,weatherlink.com 1.10,2013-02-04 00:04:00,
2013-02-03 18:19:00,4.4,-1.0,30.21,ENE,75,3.0,3.0,79,0.00,,,0.00,weatherlink.com 1.10,2013-02-04 00:19:00,
2013-02-03 18:34:00,4.2,-1.0,30.22,ENE,76,1.0,3.0,79,0.00,,,0.00,weatherlink.com 1.10,2013-02-04 00:34:00,
2013-02-03 18:49:00,4.1,-1.0,30.22,ENE,59,1.0,2.0,80,0.00,,,0.00,weatherlink.com 1.10,2013-02-04 00:49:00,
2013-02-03 19:04:00,4.1,-1.0,30.23,NNE,32,0.0,1.0,78,0.00,,,0.00,weatherlink.com 1.10,2013-02-04 01:04:00,
2013-02-03 19:19:00,4.0,-1.0,30.23,NE,44,0.0,1.0,78,0.00,,,0.00,weatherlink.com 1.10,2013-02-04 01:19:00,
2013-02-03 19:34:00,3.9,-1.0,30.23,North,11,0.0,1.0,79,0.00,,,0.00,weatherlink.com 1.10,2013-02-04 01:34:00,
2013-02-03 19:49:00,3.6,-2.0,30.23,ENE,59,0.0,1.0,79,0.00,,,0.00,weatherlink.com 1.10,2013-02-04 01:49:00,
2013-02-03 20:05:00,3.0,-3.0,30.24,NE,39,0.0,2.0,76,0.00,,,0.00,weatherlink.com 1.10,2013-02-04 02:05:00,
2013-02-03 20:20:00,2.2,-4.0,30.24,NNE,26,0.0,1.0,76,0.00,,,0.00,weatherlink.com 1.10,2013-02-04 02:20:00,
2013-02-03 20:35:00,1.5,-4.0,30.23,North,359,0.0,0.0,76,0.00,,,0.00,weatherlink.com 1.10,2013-02-04 02:35:00,
2013-02-03 20:50:00,0.9,-5.0,30.24,North,360,0.0,1.0,76,0.00,,,0.00,weatherlink.com 1.10,2013-02-04 02:50:00,
2013-02-03 21:05:00,0.7,-5.0,30.24,North,8,1.0,1.0,76,0.00,,,0.00,weatherlink.com 1.10,2013-02-04 03:05:00,
2013-02-03 21:20:00,0.8,-5.0,30.23,North,352,0.0,1.0,77,0.00,,,0.00,weatherlink.com 1.10,2013-02-04 03:20:00,
2013-02-03 21:35:00,1.4,-4.0,30.24,NE,35,0.0,2.0,77,0.00,,,0.00,weatherlink.com 1.10,2013-02-04 03:35:00,
2013-02-03 21:50:00,1.8,-4.0,30.24,NNE,33,2.0,3.0,75,0.00,,,0.00,weatherlink.com 1.10,2013-02-04 03:50:00,
2013-02-03 22:05:00,1.9,-4.0,30.24,North,1,0.0,3.0,75,0.00,,,0.00,weatherlink.com 1.10,2013-02-04 04:05:00,
2013-02-03 22:20:00,2.1,-4.0,30.24,NE,34,0.0,2.0,75,0.00,,,0.00,weatherlink.com 1.10,2013-02-04 04:20:00,
2013-02-03 22:35:00,2.3,-4.0,30.24,NE,40,1.0,3.0,75,0.00,,,0.00,weatherlink.com 1.10,2013-02-04 04:35:00,
2013-02-03 22:50:00,2.3,-5.0,30.24,North,354,1.0,3.0,72,0.00,,,0.00,weatherlink.com 1.10,2013-02-04 04:50:00,
2013-02-03 23:05:00,2.1,-4.0,30.24,North,1,0.0,2.0,74,0.00,,,0.00,weatherlink.com 1.10,2013-02-04 05:05:00,
2013-02-03 23:20:00,1.8,-5.0,30.25,NNW,341,2.0,2.0,74,0.00,,,0.00,weatherlink.com 1.10,2013-02-04 05:20:00,
2013-02-03 23:36:00,1.3,-5.0,30.25,NE,44,1.0,2.0,74,0.00,,,0.00,weatherlink.com 1.10,2013-02-04 05:36:00,
2013-02-03 23:51:00,1.0,-5.0,30.25,NE,39,1.0,3.0,75,0.00,,,0.00,weatherlink.com 1.10,2013-02-04 05:51:00,